Header for Extended Forecast Station List Page

Search by: ID | Name | Date | Parm | Value | Avg | % Avg
Sort by: ID | Name | Date | Parm | Value | Avg | % Avg

Enter search or view all records.

Click on id for station plot
#IDNameDateParmValueAvg% Avg
0HWRI1BIG LOST-AT HOWELL RANCH NEAR CHILLY06-17-2024DISCHARGE (KAF)606986
1MACI1BIG LOST-MACKAY RESERVOIR NEAR MACKAY06-17-2024INFLOW (KAF)6968101
2HALI1BIG WOOD-AT HAILEY06-17-2024DISCHARGE (KAF)798197
3MAGI1BIG WOOD-MAGIC DAM06-17-2024INFLOW (KAF)384487
4BITM8BITTERROOT-NEAR MISSOULA06-17-2024DISCHARGE (KAF)29941073
5BONM8BLACKFOOT-NEAR BONNER06-17-2024DISCHARGE (KAF)13326650
6BIGI1BOISE-AT GLENWOOD BRIDGE06-17-2024DISCHARGE (KAF)13021062
7LUCI1BOISE-LUCKY PEAK DAM06-17-2024INFLOW (KAF)632627101
8PARI1BOISE-NEAR PARMA06-17-2024DISCHARGE (KAF)14419674
9HOTI1BRUNEAU-NEAR HOT SPRINGS06-17-2024DISCHARGE (KAF)4334125
10BULO3BULLY CREEK-BULLY CREEK DAM06-17-2024INFLOW (KAF)MMM
11BUDW1BUMPING-BUMPING LAKE DAM06-17-2024INFLOW (KAF)223367
12CHDW1CHELAN-LAKE CHELAN DAM06-17-2024INFLOW (KAF)21342950
13ABOM8CLARK FORK-ABOVE MISSOULA06-17-2024DISCHARGE (KAF)29453955
14DLGM8CLARK FORK-AT DEER LODGE06-17-2024DISCHARGE (KAF)174240
15SRGM8CLARK FORK-AT ST REGIS06-17-2024DISCHARGE (KAF)792125363
16BELM8CLARK FORK-BELOW MISSOULA06-17-2024DISCHARGE (KAF)59396861
17CABI1CLARK FORK-CABINET GORGE DAM06-17-2024INFLOW (KAF)3385438177
18NOXM8CLARK FORK-NOXON RAPIDS DAM06-17-2024INFLOW (KAF)3080397677
19DRMM8CLARK FORK-NR DRUMMOND06-17-2024DISCHARGE (KAF)7412260
20CLUW1CLE ELUM-CLE ELUM LAKE06-17-2024INFLOW (KAF)7811966
21ORFI1CLEARWATER-AT OROFINO06-17-2024DISCHARGE (KAF)79897682
22SPDI1CLEARWATER-AT SPALDING06-17-2024DISCHARGE (KAF)2430265891
23COEI1COEUR D ALENE-COEUR D ALENE LAKE06-17-2024INFLOW (KAF)28132586
24CIBW1COLUMBIA-AT INTL BOUNDARY06-17-2024DISCHARGE (KAF)194782472179
25BONO3COLUMBIA-BONNEVILLE DAM06-17-2024INFLOW (KAF)294743629681
26CHJW1COLUMBIA-CHIEF JOSEPH DAM06-17-2024INFLOW (KAF)192532365681
27GCDW1COLUMBIA-GRAND COULEE DAM06-17-2024INFLOW (KAF)204562365286
28JDAO3COLUMBIA-JOHN DAY DAM06-17-2024INFLOW (KAF)285203484382
29MCDW1COLUMBIA-MCNARY DAM06-17-2024INFLOW (KAF)280163505580
30PRWW1COLUMBIA-PRIEST RAPIDS DAM06-17-2024INFLOW (KAF)203872583579
31RRHW1COLUMBIA-ROCKY REACH DAM06-17-2024INFLOW (KAF)198842535678
32TDAO3COLUMBIA-THE DALLES DAM06-17-2024INFLOW (KAF)289913520982
33WANW1COLUMBIA-WANAPUM DAM06-17-2024INFLOW (KAF)203852574779
34WELW1COLUMBIA-WELLS DAM06-17-2024INFLOW (KAF)196752465180
35DEDI1DEADWOOD-NEAR LOWMAN06-17-2024INFLOW (KAF)243275
36MODO3DESCHUTES-AT MOODY NR BIGGS06-17-2024DISCHARGE (KAF)10841087100
37ARDW1ENTIAT-NEAR ARDENVOIR06-17-2024DISCHARGE (KAF)537373
38CHEI1FALL RIVER-NEAR CHESTER06-17-2024DISCHARGE (KAF)7711766
39CFMM8FLATHEAD-AT COLUMBIA FALLS06-17-2024DISCHARGE (KAF)1679191688
40KERM8FLATHEAD-SELI’Š KSANKA QLISPE’ DAM06-17-2024INFLOW (KAF)1845229380
41TRYO3GRANDE RONDE-TROY06-17-2024DISCHARGE (KAF)25431381
42REXI1HENRYS FORK-AT REXBURG06-17-2024DISCHARGE (KAF)26732981
43ANTI1HENRYS FORK-AT ST. ANTHONY06-17-2024DISCHARGE (KAF)17732255
44IPDI1HENRYS FORK-ISLAND PARK DAM06-17-2024INFLOW (KAF)11513982
45HODO3HOOD-NEAR TUCKER BRIDGE06-17-2024DISCHARGE (KAF)9794103
46SERO3JOHN DAY-AT SERVICE CK06-17-2024DISCHARGE (KAF)8980110
47KADW1KACHESS-KACHESS DAM06-17-2024INFLOW (KAF)192771
48LAUW1KETTLE-AT LAURIER06-17-2024DISCHARGE (KAF)385371104
49PITW1KLICKITAT-NEAR PITT06-17-2024DISCHARGE (KAF)20021593
50BFEI1KOOTENAI-AT BONNERS FERRY06-17-2024STAGE (FT)MMM
51LEOI1KOOTENAI-AT LEONIA06-17-2024DISCHARGE (KAF)2059275675
52LYDM8KOOTENAI-LIBBY DAM06-17-2024INFLOW (KAF)2370284383
53LWRI1LITTLE WOOD-LITTLE WOOD DAM06-17-2024INFLOW (KAF)151788
54BERO3MALHEUR-AGENCY VALLEY DAM06-17-2024INFLOW (KAF)81367
55WRMO3MALHEUR-WARM SPRINGS DAM06-17-2024INFLOW (KAF)3563
56MYKO3MCKAY CREEK-NEAR PILOT ROCK06-17-2024DISCHARGE (KAF)1150
57PATW1METHOW-NEAR PATEROS06-17-2024DISCHARGE (KAF)16426662
58WGCM8MF FLATHEAD-NEAR WEST GLACIER06-17-2024DISCHARGE (KAF)36852171
59CLFW1NACHES-NEAR CLIFFDEL06-17-2024DISCHARGE (KAF)8112366
60NACW1NACHES-NEAR NACHES06-17-2024DISCHARGE (KAF)16025463
61DWRI1NF CLEARWATER-DWORSHAK DAM06-17-2024INFLOW (KAF)36751571
62FCFM8NF FLATHEAD-NEAR COLUMBIA FALLS06-17-2024DISCHARGE (KAF)43056976
63MONO3NF JOHN DAY-AT MONUMENT06-17-2024DISCHARGE (KAF)5553104
64CSDI1NF PAYETTE-CASCADE DAM06-17-2024INFLOW (KAF)9088102
65TONW1OKANOGAN-NEAR TONASKET06-17-2024DISCHARGE (KAF)23653145
66OWYO3OWYHEE-OWYHEE DAM06-17-2024INFLOW (KAF)8166123
67EMMI1PAYETTE-NEAR EMMETT06-17-2024DISCHARGE (KAF)40842097
68ALFW1PEND OREILLE-ALBENI FALLS DAM06-17-2024INFLOW (KAF)3622444781
69HOPI1PEND OREILLE-LAKE PEND OREILLE NR HOPE06-17-2024LAKE ELEVATION (FT)MMM
70PIHI1PORTNEUF-AT POCATELLO06-17-2024DISCHARGE (KAF)3217188
71PRTI1PRIEST-NEAR PRIEST RIVER06-17-2024DISCHARGE (KAF)201185109
72RCCM8ROCK CREEK-NEAR CLINTON06-17-2024DISCHARGE (KAF)7510968
73WHBI1SALMON-AT WHITEBIRD06-17-2024DISCHARGE (KAF)1609192684
74ARAI1SF BOISE-ANDERSON RANCH DAM06-17-2024INFLOW (KAF)8010675
75HHWM8SF FLATHEAD-HUNGRY HORSE DAM06-17-2024INFLOW (KAF)37852872
76PLDI1SF SNAKE-PALISADES DAM06-17-2024INFLOW (KAF)18151717106
77SIFI1SNAKE-AB EAGLE ROCK NR IDAHO FALLS06-17-2024DISCHARGE (KAF)1325147390
78AFRI1SNAKE-AMERICAN FALLS RESERVOIR06-17-2024INFLOW (KAF)1160124493
79SNAI1SNAKE-AT BLACKFOOT06-17-2024DISCHARGE (KAF)60774881
80MILI1SNAKE-AT MILNER06-17-2024DISCHARGE (KAF)M40M
81WEII1SNAKE-AT WEISER06-17-2024DISCHARGE (KAF)2490251099
82SWAI1SNAKE-BELOW SWAN FALLS06-17-2024DISCHARGE (KAF)1610162699
83BRNI1SNAKE-BROWNLEE DAM06-17-2024INFLOW (KAF)26522645100
84IHDW1SNAKE-ICE HARBOR DAM06-17-2024INFLOW (KAF)7218836186
85JLKW4SNAKE-JACKSON LAKE AT DAM06-17-2024INFLOW (KAF)23926889
86LGSW1SNAKE-LITTLE GOOSE DAM06-17-2024INFLOW (KAF)7206836086
87LGDW1SNAKE-LOWER GRANITE DAM06-17-2024INFLOW (KAF)7206837286
88LMNW1SNAKE-LOWER MONUMENTAL DAM06-17-2024INFLOW (KAF)7213834986
89ALPW4SNAKE-NEAR ALPINE06-17-2024DISCHARGE (KAF)13671336102
90ANAW1SNAKE-NEAR ANATONE06-17-2024DISCHARGE (KAF)4776549187
91BFTI1SNAKE-NEAR BLACKFOOT06-17-2024DISCHARGE (KAF)61370887
92HEII1SNAKE-NEAR HEISE06-17-2024DISCHARGE (KAF)2218239393
93JKSW4SNAKE-NEAR JACKSON06-17-2024DISCHARGE (KAF)11561128103
94SHYI1SNAKE-NEAR SHELLEY06-17-2024DISCHARGE (KAF)1174132888
95LLKW1SPOKANE-AT LONGLAKE06-17-2024INFLOW (KAF)54063885
96SPOW1SPOKANE-AT SPOKANE06-17-2024DISCHARGE (KAF)38848580
97SJMI1ST JOE-AT ST MARIES06-17-2024STAGE (FT)MMM
98SATI1ST MARIES-NEAR SANTA06-17-2024DISCHARGE (KAF)182090
99STRM8ST. REGIS-NEAR ST. REGIS06-17-2024DISCHARGE (KAF)375172
100TNAW1TEANAWAY-BELOW FORKS06-17-2024DISCHARGE (KAF)91372
101TEAI1TETON-NEAR ST. ANTHONY06-17-2024DISCHARGE (KAF)250208120
102RILW1TIETON-RIMROCK LAKE NEAR RIMROCK06-17-2024INFLOW (KAF)779283
103PDTO3UMATILLA-AT PENDLETON06-17-2024DISCHARGE (KAF)101565
104GIBO3UMATILLA-NEAR GIBBON06-17-2024DISCHARGE (KAF)121397
105UMAO3UMATILLA-NEAR UMATILLA06-17-2024DISCHARGE (KAF)3526134
106TCHW1WALLA WALLA-NEAR TOUCHET06-17-2024DISCHARGE (KAF)41132
107WSRI1WEISER-NEAR WEISER06-17-2024DISCHARGE (KAF)556586
108PESW1WENATCHEE-AT PESHASTIN06-17-2024DISCHARGE (KAF)43048389
109UNDW1WHITE SALMON-NEAR UNDERWOOD06-17-2024DISCHARGE (KAF)172172100
110RIDI1WILLOW CREEK-RIRIE DAM06-17-2024INFLOW (KAF)167239
111EASW1YAKIMA-AT EASTON06-17-2024DISCHARGE (KAF)497664
112KIOW1YAKIMA-AT KIONA06-17-2024DISCHARGE (KAF)30138379
113UMTW1YAKIMA-AT UMTANUM06-17-2024DISCHARGE (KAF)56367983
114KEDW1YAKIMA-KEECHELUS LAKE06-17-2024INFLOW (KAF)243180
115PARW1YAKIMA-NEAR PARKER06-17-2024DISCHARGE (KAF)2212717